Tracking 34346 objects as of 10-Jun-2026
HD Live streaming from Space Station
objects crossing your sky now

OPS 6679 (VELA 8)

Track OPS 6679 (VELA 8) now!
OPS 6679 (VELA 8) is classified as:


NORAD ID: 2766
Int'l Code: 1967-040B
Perigee: 57,116.7 km
Apogee: 167,050.5 km
Inclination: 36.5 °
Period: 6,762.2 minutes
Semi major axis: 118454 km
RCS: Unknown
Launch date: April 28, 1967
Source: United States (US)
Launch site: AIR FORCE EASTERN TEST RANGE (AFETR)
Your satellite tracking list
Your tracking list is empty




NASA's NSSDC Master Catalog

Two Line Element Set (TLE):
1 02766U 67040B   26148.52225106 -.00001179  00000-0  00000-0 0  9991
2 02766  36.4866   5.2796 4640335 121.7860 358.7111  0.21294873  5451
Source of the keplerian elements: AFSPC